period_start,C,m1,H,J0,J1,J2,J3,J4,J5,JA,JB,JC,JD,JJ,JK,JN,#
2015-07-03 00:01:58,0.04,0.14,0.00,25.87,29.62,31.99,4.80,27.08,1005.88,2028.52,3421.98,3262.94,3539.98,350.14,340.85,19.25,0000 0000 0000 0000 000000
2015-07-03 00:06:59,0.03,0.14,0.00,25.89,29.62,31.99,4.70,27.14,1006.03,2028.60,3421.94,3262.89,3539.95,349.72,340.47,19.28,0000 0000 0000 0000 000000
2015-07-03 00:12:00,-0.02,0.14,0.00,25.90,29.62,31.99,4.76,27.07,1006.27,2028.50,3421.97,3262.85,3539.93,350.33,341.35,19.31,0000 0000 0000 0000 000000
2015-07-03 00:17:01,0.03,0.14,0.00,25.90,29.62,31.98,4.64,26.99,1006.31,2028.67,3421.98,3262.91,3539.97,350.08,341.01,19.34,0000 0000 0000 0000 000000
2015-07-03 00:22:03,0.02,0.15,0.00,25.92,29.62,31.97,4.60,26.96,1006.21,2028.90,3421.98,3262.95,3539.97,350.09,340.95,19.37,0000 0000 0000 0000 000000
2015-07-03 00:27:04,-0.01,0.15,0.00,25.92,29.62,31.97,4.69,27.22,1006.20,2028.88,3421.99,3262.96,3539.97,349.98,340.82,19.40,0000 0000 0000 0000 000000
2015-07-03 00:32:05,0.00,0.15,0.00,25.95,29.62,31.98,4.71,27.17,1006.29,2028.85,3421.99,3262.95,3539.97,350.05,340.86,19.42,0000 0000 0000 0000 000000
2015-07-03 00:37:07,-0.03,0.15,0.00,25.95,29.62,31.96,4.74,27.35,1006.30,2028.66,3421.99,3262.92,3539.95,350.02,341.06,19.45,0000 0000 0000 0000 000000
2015-07-03 00:42:08,-0.03,0.14,0.00,25.96,29.62,31.96,4.59,27.14,1006.32,2028.29,3421.98,3262.65,3539.70,349.90,340.62,19.48,0000 0000 0000 0000 000000
2015-07-03 00:47:10,0.01,0.14,0.00,25.97,29.62,31.96,4.69,27.09,1006.35,2028.36,3421.98,3262.58,3539.65,350.06,340.76,19.51,0000 0000 0000 0000 000000
2015-07-03 00:52:11,0.03,0.14,0.00,25.99,29.62,31.95,4.76,27.04,1006.37,2028.49,3421.99,3262.83,3539.86,350.39,340.94,19.54,0000 0000 0000 0000 000000
2015-07-03 00:57:12,-0.02,0.14,0.00,26.00,29.62,31.96,4.70,27.17,1006.39,2028.53,3421.99,3262.89,3539.94,349.93,340.71,19.57,0000 0000 0000 0000 000000
2015-07-03 01:02:13,-0.04,0.14,0.00,26.01,29.62,31.96,4.64,27.19,1006.47,2028.31,3421.99,3262.85,3539.86,350.02,340.91,19.60,0000 0000 0000 0000 000000
2015-07-03 01:07:15,-0.01,0.14,0.00,26.03,29.63,31.97,4.75,27.20,1006.65,2028.26,3422.00,3262.84,3539.78,350.17,340.92,19.63,0000 0000 0000 0000 000000
2015-07-03 01:12:16,-0.01,0.14,0.00,26.04,29.65,31.96,4.66,27.09,1006.83,2028.16,3422.00,3262.81,3539.75,349.95,340.75,19.66,0000 0000 0000 0000 000000
2015-07-03 01:17:17,0.01,0.14,0.00,26.05,29.65,31.97,4.64,27.24,1006.80,2028.08,3422.00,3262.63,3539.62,349.28,340.35,19.69,0000 0000 0000 0000 000000
2015-07-03 01:22:18,0.02,0.14,0.00,26.05,29.65,31.97,4.64,27.08,1006.83,2028.06,3422.00,3262.37,3539.33,350.08,340.98,19.72,0000 0000 0000 0000 000000
2015-07-03 01:27:19,-0.01,0.14,0.00,26.05,29.65,31.98,4.73,27.15,1006.83,2028.03,3422.00,3262.42,3539.34,349.72,340.83,19.75,0000 0000 0000 0000 000000
2015-07-03 01:32:20,0.01,0.14,0.00,26.07,29.67,31.98,4.74,27.20,1006.83,2028.05,3422.00,3262.34,3539.31,350.50,340.98,19.78,0000 0000 0000 0000 000000
2015-07-03 01:37:21,0.00,0.14,0.00,26.10,29.67,31.99,4.66,27.37,1006.84,2028.01,3422.00,3262.13,3539.11,349.91,340.71,19.81,0000 0000 0000 0000 000000
2015-07-03 01:42:22,0.00,0.14,0.00,26.11,29.67,31.99,4.66,27.35,1006.85,2028.00,3421.99,3262.04,3539.03,349.59,340.65,19.83,0000 0000 0000 0000 000000
2015-07-03 01:47:23,0.00,0.14,0.00,26.11,29.68,32.01,4.68,27.23,1006.87,2028.00,3422.00,3262.04,3539.03,349.55,340.33,19.86,0000 0000 0000 0000 000000
2015-07-03 01:52:25,0.00,0.14,0.00,26.06,29.70,32.02,4.69,27.23,1006.86,2028.00,3422.00,3262.04,3539.01,350.22,341.07,19.89,0000 0000 0000 0000 000000
2015-07-03 01:57:26,0.00,0.14,0.00,25.95,29.70,32.14,4.75,27.28,1006.86,2028.00,3422.00,3262.02,3539.01,350.37,341.22,19.92,0000 0000 0000 0000 000000
2015-07-03 02:02:27,0.00,0.14,0.00,25.83,29.70,32.28,4.67,27.24,1006.86,2028.00,3422.00,3262.02,3539.01,349.47,340.46,19.95,0000 0000 0000 0000 000000
2015-07-03 02:07:29,-0.00,0.14,0.00,25.70,29.69,32.38,4.65,27.42,1006.87,2028.00,3422.00,3262.06,3539.01,349.82,341.23,19.98,0000 0000 0000 0000 000000
2015-07-03 02:12:30,-0.02,0.14,0.00,25.58,29.67,32.40,4.71,27.49,1007.15,2028.00,3422.00,3262.44,3539.20,349.83,341.49,20.01,0000 0000 0000 0000 000000
2015-07-03 02:17:31,-0.01,0.14,0.00,25.47,29.65,32.35,4.72,27.43,1007.34,2028.00,3422.04,3262.73,3539.40,349.36,341.18,20.04,0000 0000 0000 0000 000000
2015-07-03 02:22:32,-0.03,0.14,0.00,25.38,29.62,32.30,4.68,27.52,1007.34,2028.00,3422.55,3262.90,3539.63,349.76,341.63,20.07,0000 0000 0000 0000 000000
2015-07-03 02:27:34,-0.00,0.14,0.00,25.28,29.59,32.21,4.71,27.38,1007.42,2028.02,3422.91,3262.98,3539.96,349.94,341.87,20.10,0000 0000 0000 0000 000000
2015-07-03 02:32:35,0.05,0.14,0.00,25.24,29.55,32.12,4.71,27.43,1007.68,2028.08,3422.12,3262.79,3539.50,349.89,341.94,20.13,0000 0000 0000 0000 000000
2015-07-03 02:37:36,0.09,0.14,0.00,25.22,29.51,32.03,4.72,27.45,1007.54,2028.63,3421.96,3262.99,3539.97,350.21,342.43,20.16,0000 0000 0000 0000 000000
2015-07-03 02:42:38,0.01,0.15,0.00,25.24,29.47,31.95,4.70,27.52,1007.72,2028.89,3421.99,3263.08,3539.99,349.94,341.62,20.19,0000 0000 0000 0000 000000
2015-07-03 02:47:39,-0.02,0.15,0.00,25.25,29.42,31.89,4.67,27.48,1007.49,2028.98,3422.04,3263.68,3540.08,349.90,341.92,20.22,0000 0000 0000 0000 000000
2015-07-03 02:52:40,-0.03,0.14,0.00,25.27,29.39,31.82,4.76,27.68,1007.37,2028.99,3422.31,3263.99,3540.77,349.96,341.73,20.24,0000 0000 0000 0000 000000
2015-07-03 02:57:41,-0.02,0.14,0.00,25.31,29.35,31.76,4.65,27.43,1007.72,2029.00,3422.93,3264.00,3540.98,349.55,341.56,20.27,0000 0000 0000 0000 000000
2015-07-03 03:02:43,-0.00,0.14,0.00,25.36,29.31,31.74,4.65,27.51,1007.79,2029.01,3423.01,3264.08,3540.99,350.13,342.09,20.30,0000 0000 0000 0000 000000
2015-07-03 03:07:44,0.01,0.14,0.00,25.41,29.29,31.70,4.73,27.43,1007.83,2029.05,3423.03,3264.20,3541.00,350.17,342.13,20.33,0000 0000 0000 0000 000000
2015-07-03 03:12:45,-0.02,0.14,0.00,25.47,29.26,31.64,4.67,27.43,1007.83,2029.06,3423.15,3264.55,3541.02,349.36,341.26,20.36,0000 0000 0000 0000 000000
2015-07-03 03:17:46,-0.02,0.14,0.00,25.51,29.25,31.58,4.71,27.51,1007.83,2029.10,3423.56,3264.89,3541.09,350.43,342.38,20.39,0000 0000 0000 0000 000000
2015-07-03 03:22:47,0.02,0.14,0.00,25.56,29.23,31.54,4.63,27.38,1007.83,2029.38,3423.80,3264.98,3541.57,349.75,341.63,20.42,0000 0000 0000 0000 000000
2015-07-03 03:27:49,0.03,0.14,0.00,25.61,29.22,31.51,4.70,27.41,1007.84,2029.65,3423.97,3264.99,3541.89,350.11,341.78,20.45,0000 0000 0000 0000 000000
2015-07-03 03:32:50,0.03,0.14,0.00,25.66,29.22,31.49,4.63,27.46,1007.84,2029.76,3423.99,3264.99,3541.95,349.91,341.79,20.48,0000 0000 0000 0000 000000
2015-07-03 03:37:51,0.00,0.14,0.00,25.69,29.22,31.49,4.73,27.43,1007.84,2029.86,3423.97,3264.99,3541.97,350.46,342.08,20.51,0000 0000 0000 0000 000000
2015-07-03 03:42:52,0.01,0.14,0.00,25.73,29.22,31.48,4.69,27.42,1007.98,2029.90,3423.96,3264.99,3541.97,350.09,341.67,20.54,0000 0000 0000 0000 000000
2015-07-03 03:47:54,-0.00,0.14,0.00,25.77,29.22,31.48,4.68,27.30,1008.16,2029.91,3423.99,3264.99,3541.98,350.14,341.67,20.57,0000 0000 0000 0000 000000
2015-07-03 03:52:55,-0.00,0.14,0.00,25.81,29.22,31.49,4.70,27.31,1008.06,2029.88,3423.98,3264.99,3541.96,350.13,341.67,20.60,0000 0000 0000 0000 000000
2015-07-03 03:57:56,-0.05,0.14,0.00,25.84,29.22,31.51,4.74,27.23,1008.28,2029.63,3423.96,3264.98,3541.73,350.62,341.89,20.63,0000 0000 0000 0000 000000
2015-07-03 04:02:57,0.02,0.14,0.00,25.87,29.25,31.51,4.70,27.35,1008.29,2029.61,3423.98,3264.96,3541.53,349.68,341.17,20.65,0000 0000 0000 0000 000000
2015-07-03 04:07:59,-0.04,0.14,0.00,25.90,29.25,31.53,4.66,27.35,1008.30,2029.36,3423.89,3264.97,3541.40,349.66,341.24,20.68,0000 0000 0000 0000 000000
2015-07-03 04:13:00,0.01,0.14,0.00,25.93,29.27,31.55,4.65,27.39,1008.25,2029.27,3423.76,3264.96,3541.11,349.86,341.23,20.71,0000 0000 0000 0000 000000
2015-07-03 04:18:01,-0.00,0.14,0.00,25.95,29.28,31.58,4.74,27.23,1008.27,2029.15,3423.43,3264.77,3541.03,350.54,341.96,20.74,0000 0000 0000 0000 000000
2015-07-03 04:23:02,0.02,0.14,0.00,25.97,29.30,31.59,4.64,27.25,1008.21,2029.04,3423.09,3264.36,3541.01,349.82,341.22,20.77,0000 0000 0000 0000 000000
2015-07-03 04:28:04,0.01,0.14,0.00,25.98,29.31,31.62,4.70,27.17,1008.26,2029.01,3423.04,3264.11,3541.00,350.46,341.82,20.80,0000 0000 0000 0000 000000
2015-07-03 04:33:05,0.01,0.14,0.00,26.01,29.33,31.64,4.72,27.18,1008.29,2029.01,3423.01,3264.03,3540.99,349.99,341.45,20.83,0000 0000 0000 0000 000000
2015-07-03 04:38:06,0.00,0.14,0.00,26.02,29.35,31.66,4.69,27.32,1008.25,2029.00,3423.00,3264.02,3540.97,349.95,341.30,20.86,0000 0000 0000 0000 000000
2015-07-03 04:43:07,0.00,0.14,0.00,26.04,29.36,31.68,4.68,27.27,1008.21,2029.00,3423.00,3264.01,3540.93,350.26,341.65,20.89,0000 0000 0000 0000 000000
2015-07-03 04:48:09,0.01,0.14,0.00,26.06,29.38,31.70,4.72,27.27,1008.16,2029.00,3422.98,3264.00,3540.67,350.54,341.77,20.92,0000 0000 0000 0000 000000
2015-07-03 04:53:10,0.01,0.14,0.00,26.08,29.40,31.72,4.73,27.25,1008.13,2029.00,3422.98,3264.00,3540.13,350.29,341.65,20.95,0000 0000 0000 0000 000000
2015-07-03 04:58:11,0.00,0.14,0.00,26.10,29.42,31.74,4.68,27.18,1008.21,2028.99,3422.90,3263.97,3540.04,350.06,341.22,20.98,0000 0000 0000 0000 000000
2015-07-03 05:03:12,0.00,0.14,0.00,26.12,29.44,31.75,4.67,27.27,1008.26,2028.96,3422.78,3263.89,3540.00,350.45,341.61,21.01,0000 0000 0000 0000 000000
2015-07-03 05:08:14,0.02,0.14,0.00,26.13,29.46,31.78,4.63,27.38,1008.26,2028.96,3422.33,3263.70,3540.00,349.05,340.29,21.03,0000 0000 0000 0000 000000
2015-07-03 05:13:15,-0.02,0.15,0.00,26.15,29.47,31.80,4.65,27.24,1008.27,2028.75,3422.06,3263.16,3539.97,349.88,341.01,21.06,0000 0000 0000 0000 000000
2015-07-03 05:18:17,-0.05,0.14,0.00,26.16,29.50,31.82,4.71,27.42,1008.23,2028.33,3422.00,3263.01,3539.76,350.57,341.75,21.09,0000 0000 0000 0000 000000
2015-07-03 05:23:18,-0.00,0.14,0.00,26.17,29.51,31.84,4.67,27.28,1008.19,2028.16,3421.99,3263.00,3539.38,350.43,341.49,21.12,0000 0000 0000 0000 000000
2015-07-03 05:28:19,-0.00,0.14,0.00,26.20,29.53,31.86,4.60,27.32,1008.09,2028.07,3421.95,3263.00,3539.03,349.50,340.61,21.15,0000 0000 0000 0000 000000
2015-07-03 05:33:20,0.01,0.14,0.00,26.20,29.55,31.88,4.64,27.25,1008.12,2028.01,3421.57,3262.98,3539.00,349.45,340.65,21.18,0000 0000 0000 0000 000000
2015-07-03 05:38:21,0.00,0.14,0.00,26.22,29.57,31.89,4.73,27.34,1008.23,2028.00,3421.26,3262.93,3538.99,350.31,341.55,21.21,0000 0000 0000 0000 000000
2015-07-03 05:43:22,0.02,0.14,0.00,26.24,29.59,31.91,4.68,27.35,1008.30,2028.00,3421.04,3262.62,3538.94,350.15,341.54,21.24,0000 0000 0000 0000 000000
2015-07-03 05:48:24,0.02,0.14,0.00,26.25,29.60,31.94,4.67,27.30,1008.31,2028.00,3421.00,3262.15,3538.69,349.91,340.90,21.27,0000 0000 0000 0000 000000
2015-07-03 05:53:25,0.01,0.14,0.00,26.25,29.62,31.95,4.61,27.22,1008.31,2027.99,3421.00,3262.03,3538.22,349.66,340.81,21.30,0000 0000 0000 0000 000000
2015-07-03 05:58:26,0.00,0.14,0.00,26.26,29.64,31.97,4.75,27.24,1008.31,2027.98,3420.98,3262.00,3538.05,350.36,341.28,21.33,0000 0000 0000 0000 000000
2015-07-03 06:03:27,0.01,0.15,0.00,26.28,29.65,31.98,4.70,27.15,1008.30,2027.97,3420.86,3262.00,3538.00,349.95,341.07,21.36,0000 0000 0000 0000 000000
2015-07-03 06:08:29,0.01,0.15,0.00,26.29,29.67,31.99,4.67,27.23,1008.26,2027.97,3420.54,3262.00,3538.00,349.91,340.97,21.39,0000 0000 0000 0000 000000
2015-07-03 06:13:30,-0.00,0.15,0.00,26.31,29.69,32.01,4.67,27.23,1008.30,2027.91,3420.17,3261.95,3537.98,349.56,340.65,21.42,0000 0000 0000 0000 000000
2015-07-03 06:18:31,-0.04,0.14,0.00,26.32,29.70,32.02,4.67,27.13,1008.29,2027.61,3420.09,3261.69,3537.88,350.48,341.47,21.44,0000 0000 0000 0000 000000
2015-07-03 06:23:33,-0.01,0.14,0.00,26.32,29.72,32.04,4.68,27.24,1008.28,2027.39,3419.99,3261.23,3537.60,350.06,341.18,21.47,0000 0000 0000 0000 000000
2015-07-03 06:28:34,0.07,0.15,0.00,26.35,29.74,32.05,4.67,27.19,1008.29,2027.57,3419.89,3261.03,3537.32,350.33,341.31,21.50,0000 0000 0000 0000 000000
2015-07-03 06:33:36,0.02,0.15,0.00,26.37,29.75,32.07,4.74,27.15,1008.31,2027.75,3419.96,3261.02,3537.20,350.96,341.90,21.53,0000 0000 0000 0000 000000
2015-07-03 06:38:37,-0.06,0.15,0.00,26.40,29.77,32.07,4.69,27.41,1008.31,2027.31,3419.57,3261.00,3537.02,349.90,340.95,21.56,0000 0000 0000 0000 000000
2015-07-03 06:43:38,-0.01,0.14,0.00,26.41,29.77,32.09,4.72,27.13,1008.33,2027.09,3419.10,3260.98,3537.00,350.27,341.19,21.59,0000 0000 0000 0000 000000
2015-07-03 06:48:39,-0.00,0.14,0.00,26.44,29.79,32.10,4.68,27.18,1008.32,2027.05,3419.01,3260.95,3537.00,349.61,340.42,21.62,0000 0000 0000 0000 000000
2015-07-03 06:53:40,0.00,0.14,0.00,26.46,29.81,32.11,4.66,27.29,1008.35,2027.03,3419.00,3260.85,3536.92,349.57,340.33,21.65,0000 0000 0000 0000 000000
2015-07-03 06:58:42,0.02,0.14,0.00,26.47,29.82,32.13,4.62,27.11,1008.41,2027.01,3419.00,3260.57,3536.77,349.76,340.77,21.68,0000 0000 0000 0000 000000
2015-07-03 07:03:43,0.01,0.15,0.00,26.48,29.84,32.15,4.67,27.08,1008.49,2027.00,3419.00,3260.11,3536.26,349.63,340.66,21.71,0000 0000 0000 0000 000000
2015-07-03 07:08:44,0.01,0.15,0.00,26.50,29.86,32.16,4.67,27.17,1008.50,2027.00,3418.98,3260.03,3536.05,350.31,341.23,21.74,0000 0000 0000 0000 000000
2015-07-03 07:13:46,0.02,0.15,0.00,26.51,29.87,32.18,4.78,27.36,1008.52,2027.00,3418.32,3260.00,3536.05,350.36,341.28,21.77,0000 0000 0000 0000 000000
2015-07-03 07:18:47,0.00,0.15,0.00,26.52,29.89,32.20,4.67,27.25,1008.63,2027.00,3418.01,3260.00,3536.00,349.72,340.46,21.80,0000 0000 0000 0000 000000
2015-07-03 07:23:48,0.00,0.15,0.00,26.54,29.91,32.21,4.73,27.35,1008.79,2027.00,3418.00,3259.99,3536.00,350.35,341.24,21.83,0000 0000 0000 0000 000000
2015-07-03 07:28:49,0.00,0.15,0.00,26.55,29.92,32.24,4.72,27.26,1008.79,2027.00,3418.00,3259.93,3535.98,350.32,341.20,21.85,0000 0000 0000 0000 000000
2015-07-03 07:33:50,0.02,0.15,0.00,26.58,29.94,32.26,4.78,27.28,1008.76,2026.99,3417.98,3259.62,3535.72,350.71,341.59,21.88,0000 0000 0000 0000 000000
2015-07-03 07:38:51,0.04,0.15,0.00,26.60,29.95,32.27,4.77,27.57,1008.80,2026.98,3417.69,3259.12,3535.18,350.15,341.32,21.91,0000 0000 0000 0000 000000
2015-07-03 07:43:52,0.00,0.15,0.00,26.62,29.97,32.29,4.66,27.30,1008.81,2026.94,3417.65,3259.03,3535.02,350.05,340.87,21.94,0000 0000 0000 0000 000000
2015-07-03 07:48:53,-0.02,0.15,0.00,26.65,29.99,32.30,4.67,27.26,1008.83,2026.78,3417.44,3259.00,3535.00,350.37,341.18,21.97,0000 0000 0000 0000 000000
2015-07-03 07:53:54,0.00,0.15,0.00,26.68,30.00,32.31,4.68,27.32,1008.85,2026.67,3417.11,3259.00,3535.00,349.43,340.22,22.00,0000 0000 0000 0000 000000
2015-07-03 07:58:56,-0.04,0.15,0.00,26.69,30.02,32.33,4.70,27.24,1008.90,2026.44,3417.02,3258.98,3534.96,350.34,341.31,22.03,0000 0000 0000 0000 000000
2015-07-03 08:03:57,-0.03,0.15,0.00,26.70,30.03,32.34,4.66,27.25,1009.01,2026.23,3417.00,3258.92,3534.85,349.72,340.62,22.06,0000 0000 0000 0000 000000
2015-07-03 08:08:58,0.02,0.15,0.00,26.72,30.05,32.35,4.69,27.27,1009.24,2026.09,3416.97,3258.55,3534.34,350.04,341.04,22.09,0000 0000 0000 0000 000000
2015-07-03 08:13:59,0.01,0.15,0.00,26.76,30.07,32.37,4.66,27.36,1009.22,2026.03,3416.98,3258.19,3534.03,350.25,341.07,22.12,0000 0000 0000 0000 000000
2015-07-03 08:19:00,0.00,0.15,0.00,26.80,30.08,32.39,4.71,27.19,1009.23,2026.00,3416.94,3258.08,3534.00,350.25,341.16,22.15,0000 0000 0000 0000 000000
2015-07-03 08:24:01,0.00,0.15,0.00,26.84,30.10,32.40,4.72,27.25,1009.23,2026.00,3416.86,3258.01,3533.99,350.55,341.26,22.18,0000 0000 0000 0000 000000
2015-07-03 08:29:03,0.01,0.15,0.00,26.86,30.12,32.41,4.63,27.19,1009.16,2026.00,3416.68,3258.00,3533.99,349.52,340.18,22.21,0000 0000 0000 0000 000000
2015-07-03 08:34:04,0.01,0.15,0.00,26.88,30.13,32.42,4.66,27.27,1009.17,2026.00,3416.25,3257.99,3533.94,349.72,340.40,22.23,0000 0000 0000 0000 000000
2015-07-03 08:39:05,0.01,0.15,0.00,26.91,30.15,32.45,4.64,27.28,1009.22,2025.99,3416.01,3257.93,3533.53,349.27,339.95,22.26,0000 0000 0000 0000 000000
2015-07-03 08:44:06,0.01,0.15,0.00,26.92,30.17,32.45,4.66,27.27,1009.28,2025.98,3416.00,3257.86,3533.15,349.83,340.58,22.29,0000 0000 0000 0000 000000
2015-07-03 08:49:07,0.00,0.15,0.00,26.95,30.19,32.48,4.63,27.32,1009.24,2025.95,3416.00,3257.68,3533.04,349.60,339.91,22.32,0000 0000 0000 0000 000000
2015-07-03 08:54:08,-0.01,0.15,0.00,26.97,30.21,32.49,4.67,27.25,1009.24,2025.83,3415.99,3257.13,3533.00,349.57,340.17,22.35,0000 0000 0000 0000 000000
2015-07-03 08:59:09,-0.05,0.15,0.00,27.00,30.23,32.51,4.71,27.21,1009.25,2025.42,3415.95,3257.01,3532.98,350.26,340.82,22.38,0000 0000 0000 0000 000000
2015-07-03 09:04:11,-0.03,0.15,0.00,27.02,30.25,32.53,4.61,27.14,1009.27,2025.18,3415.89,3257.00,3532.93,349.64,340.21,22.41,0000 0000 0000 0000 000000
2015-07-03 09:09:12,0.02,0.15,0.00,27.04,30.27,32.55,4.69,27.22,1009.28,2025.08,3415.38,3256.98,3532.52,350.23,340.67,22.44,0000 0000 0000 0000 000000
2015-07-03 09:14:13,0.01,0.15,0.00,27.06,30.29,32.57,4.68,27.10,1009.29,2025.02,3415.05,3256.93,3532.04,350.20,340.78,22.47,0000 0000 0000 0000 000000
2015-07-03 09:19:15,0.00,0.15,0.00,27.09,30.31,32.59,4.69,27.14,1009.29,2025.00,3415.01,3256.86,3532.02,350.30,340.73,22.50,0000 0000 0000 0000 000000
2015-07-03 09:24:16,0.03,0.15,0.00,27.11,30.32,32.61,4.66,27.23,1009.30,2025.00,3415.00,3256.32,3532.00,349.96,340.32,22.53,0000 0000 0000 0000 000000
2015-07-03 09:29:17,0.01,0.15,0.00,27.14,30.35,32.64,4.64,27.12,1009.31,2025.00,3414.90,3256.03,3531.98,350.22,340.82,22.56,0000 0000 0000 0000 000000
2015-07-03 09:34:19,0.00,0.15,0.00,27.16,30.37,32.65,4.74,27.18,1009.31,2024.98,3414.68,3256.00,3531.92,349.77,340.16,22.59,0000 0000 0000 0000 000000
2015-07-03 09:39:20,0.03,0.15,0.00,27.18,30.39,32.67,4.68,27.27,1009.32,2024.96,3414.18,3255.99,3531.33,349.78,340.23,22.62,0000 0000 0000 0000 000000
2015-07-03 09:44:22,-0.00,0.15,0.00,27.21,30.41,32.69,4.62,27.11,1009.41,2024.91,3414.09,3255.97,3531.02,349.58,340.15,22.64,0000 0000 0000 0000 000000
2015-07-03 09:49:23,-0.05,0.15,0.00,27.23,30.43,32.71,4.70,27.17,1009.52,2024.54,3414.03,3255.83,3531.00,350.03,340.40,22.67,0000 0000 0000 0000 000000
2015-07-03 09:54:24,-0.00,0.15,0.00,27.26,30.45,32.73,4.68,27.22,1009.58,2024.40,3414.00,3255.46,3531.00,350.11,340.43,22.70,0000 0000 0000 0000 000000
2015-07-03 09:59:25,-0.03,0.15,0.00,27.29,30.47,32.74,4.61,27.16,1009.45,2024.15,3413.93,3255.07,3530.96,349.72,339.99,22.73,0000 0000 0000 0000 000000
2015-07-03 10:04:27,0.01,0.15,0.00,27.33,30.50,32.75,4.67,27.15,1009.44,2024.05,3413.63,3255.00,3530.75,349.77,340.05,22.76,0000 0000 0000 0000 000000
2015-07-03 10:09:28,0.02,0.15,0.00,27.36,30.52,32.78,4.65,26.96,1009.51,2024.02,3413.13,3254.99,3530.17,350.40,340.78,22.79,0000 0000 0000 0000 000000
2015-07-03 10:14:29,0.01,0.15,0.00,27.39,30.55,32.80,4.61,27.09,1009.65,2024.00,3413.02,3254.83,3530.01,349.76,339.98,22.82,0000 0000 0000 0000 000000
2015-07-03 10:19:30,0.02,0.15,0.00,27.42,30.57,32.82,4.65,27.21,1009.77,2024.00,3413.00,3254.31,3530.00,349.82,340.05,22.85,0000 0000 0000 0000 000000
2015-07-03 10:24:31,0.01,0.15,0.00,27.45,30.60,32.84,4.66,27.07,1009.78,2024.00,3412.98,3254.04,3529.95,350.00,340.31,22.88,0000 0000 0000 0000 000000
2015-07-03 10:29:32,0.01,0.15,0.00,27.48,30.62,32.87,4.66,27.10,1009.78,2024.00,3412.86,3254.01,3529.86,350.46,340.56,22.91,0000 0000 0000 0000 000000
2015-07-03 10:34:33,0.02,0.15,0.00,27.52,30.65,32.89,4.68,27.10,1009.79,2024.00,3412.75,3254.00,3529.32,350.18,340.34,22.94,0000 0000 0000 0000 000000
2015-07-03 10:39:35,0.01,0.15,0.00,27.55,30.68,32.92,4.64,27.21,1009.79,2023.89,3412.22,3253.92,3529.01,349.68,339.82,22.97,0000 0000 0000 0000 000000
2015-07-03 10:44:36,0.00,0.15,0.00,27.58,30.71,32.96,4.64,26.95,1009.80,2023.82,3412.00,3253.59,3528.99,350.18,340.04,23.00,0000 0000 0000 0000 000000
2015-07-03 10:49:37,-0.07,0.15,0.00,27.61,30.74,32.99,4.60,27.05,1009.80,2023.26,3412.00,3253.10,3528.86,349.86,339.93,23.03,0000 0000 0000 0000 000000
2015-07-03 10:54:38,-0.00,0.15,0.00,27.65,30.77,33.02,4.63,26.99,1009.79,2023.06,3411.96,3253.01,3528.22,349.84,339.86,23.05,0000 0000 0000 0000 000000
2015-07-03 10:59:39,0.01,0.15,0.00,27.68,30.80,33.07,4.64,27.09,1009.79,2023.01,3411.62,3252.99,3528.01,350.10,340.06,23.08,0000 0000 0000 0000 000000
2015-07-03 11:04:40,0.01,0.15,0.00,27.71,30.83,33.11,4.68,26.94,1009.79,2023.00,3411.13,3252.88,3527.99,349.98,340.03,23.11,0000 0000 0000 0000 000000
2015-07-03 11:09:42,0.02,0.15,0.00,27.75,30.86,33.15,4.71,26.93,1009.80,2023.00,3411.02,3252.42,3527.93,350.32,340.30,23.14,0000 0000 0000 0000 000000
2015-07-03 11:14:43,0.02,0.15,0.00,27.77,30.90,33.19,4.66,27.01,1009.80,2022.98,3411.00,3252.03,3527.37,350.05,339.92,23.17,0000 0000 0000 0000 000000
2015-07-03 11:19:44,-0.01,0.15,0.00,27.76,30.93,33.25,4.66,27.04,1010.00,2022.87,3410.74,3252.00,3527.02,349.95,339.95,23.20,0000 0000 0000 0000 000000
2015-07-03 11:24:45,-0.05,0.15,0.00,27.75,30.96,33.29,4.72,27.07,1010.20,2022.48,3410.18,3251.96,3526.99,350.31,340.26,23.23,0000 0000 0000 0000 000000
2015-07-03 11:29:46,-0.02,0.15,0.00,27.73,30.98,33.32,4.69,27.03,1010.27,2022.11,3410.02,3251.66,3526.90,349.69,339.80,23.26,0000 0000 0000 0000 000000
2015-07-03 11:34:47,0.01,0.15,0.00,27.71,31.01,33.34,4.69,27.11,1010.27,2022.01,3410.01,3251.18,3526.49,350.27,340.27,23.29,0000 0000 0000 0000 000000
2015-07-03 11:39:48,0.01,0.15,0.00,27.67,31.02,33.35,4.69,27.18,1010.27,2022.00,3409.98,3251.01,3526.04,349.86,340.02,23.32,0000 0000 0000 0000 000000
2015-07-03 11:44:49,0.00,0.15,0.00,27.67,31.05,33.37,4.69,26.98,1010.27,2022.00,3409.89,3251.00,3526.00,350.01,340.17,23.35,0000 0000 0000 0000 000000
2015-07-03 11:49:51,0.00,0.15,0.00,27.69,31.07,33.37,4.65,27.02,1010.27,2022.00,3409.57,3251.00,3526.00,349.78,339.97,23.38,0000 0000 0000 0000 000000
2015-07-03 11:54:52,0.01,0.15,0.00,27.70,31.08,33.37,4.73,26.95,1010.26,2021.99,3409.14,3250.93,3525.95,350.51,340.58,23.41,0000 0000 0000 0000 000000
2015-07-03 11:59:53,0.01,0.15,0.00,27.71,31.10,33.39,4.63,26.94,1010.26,2021.97,3409.04,3250.78,3525.67,349.17,339.33,23.44,0000 0000 0000 0000 000000
2015-07-03 12:04:55,0.03,0.15,0.00,27.71,31.11,33.40,4.66,26.98,1010.27,2021.94,3409.01,3250.35,3525.28,349.77,339.88,23.46,0000 0000 0000 0000 000000
2015-07-03 12:09:57,-0.00,0.15,0.00,27.72,31.12,33.43,4.71,26.96,1010.27,2021.90,3409.00,3250.07,3525.05,350.58,340.72,23.49,0000 0000 0000 0000 000000
2015-07-03 12:14:58,-0.04,0.15,0.00,27.73,31.13,33.43,4.74,27.16,1010.27,2021.69,3408.98,3250.01,3525.01,350.41,340.48,23.52,0000 0000 0000 0000 000000
2015-07-03 12:19:59,-0.02,0.15,0.00,27.72,31.15,33.46,4.70,27.01,1010.27,2021.48,3408.88,3250.00,3525.00,350.40,340.40,23.55,0000 0000 0000 0000 000000
2015-07-03 12:25:01,0.02,0.15,0.00,27.74,31.15,33.46,4.63,27.08,1010.27,2021.38,3408.47,3250.00,3525.00,349.95,340.14,23.58,0000 0000 0000 0000 000000
2015-07-03 12:30:02,-0.01,0.15,0.00,27.75,31.17,33.47,4.74,26.95,1010.28,2021.33,3408.28,3250.00,3524.99,350.28,340.34,23.61,0000 0000 0000 0000 000000
2015-07-03 12:35:03,-0.02,0.15,0.00,27.75,31.17,33.46,4.63,26.98,1010.28,2021.21,3408.17,3249.99,3524.98,349.94,340.06,23.64,0000 0000 0000 0000 000000
2015-07-03 12:40:05,0.01,0.15,0.00,27.76,31.17,33.48,4.58,27.18,1010.27,2021.08,3408.06,3249.82,3524.60,349.80,339.86,23.67,0000 0000 0000 0000 000000
2015-07-03 12:45:06,0.00,0.15,0.00,27.77,31.20,33.48,4.63,26.89,1010.29,2021.01,3408.01,3249.72,3524.27,350.26,340.13,23.70,0000 0000 0000 0000 000000
2015-07-03 12:50:07,0.02,0.15,0.00,27.77,31.20,33.48,4.66,26.91,1010.28,2021.01,3408.00,3249.47,3524.12,350.65,340.43,23.73,0000 0000 0000 0000 000000
2015-07-03 12:55:09,0.01,0.15,0.00,27.77,31.20,33.49,4.73,27.01,1010.31,2021.00,3408.00,3249.18,3524.04,350.12,340.14,23.76,0000 0000 0000 0000 000000
2015-07-03 13:00:10,0.00,0.15,0.00,27.76,31.22,33.50,4.72,26.98,1010.42,2021.00,3408.00,3249.05,3524.01,350.47,340.49,23.79,0000 0000 0000 0000 000000